{"data":{"norad_id":55785,"intl_designator":"2023-028AW","name":"STARLINK-5818","alt_names":[],"object_type":"PAYLOAD","status":"ACTIVE","operator":null,"country":"US","launch_date":"2023-03-03","launch_site_code":"AFWTR","launch_vehicle":null,"mission":null,"orbit_class":"UNKNOWN","rcs_meters":null,"size_class":null,"mass_kg":null,"dimensions":null,"purposes":["comms"],"wikipedia_slug":null,"has_3d_model":false,"image_url":null,"decayed_at":null,"tle_current":{"epoch":"2026-09-20T22:00:03.000096Z","epoch_age_seconds":67148,"freshness":"FRESH","line1":"1 55785U 23028AW  26263.91670139  .00085447  00000+0  57428-2 0  9995","line2":"2 55785  70.0014  72.3030 0003546 234.0890 262.4918 15.06283144  5723","mean_motion":15.06283144,"eccentricity":0.0003546,"inclination_deg":70.0014,"raan_deg":72.303,"arg_perigee_deg":234.089,"mean_anomaly_deg":262.4918,"bstar":0.0057428,"rev_number":572,"period_min":95.599556148256,"perigee_km":545.11387229592,"apogee_km":550.02558350735,"semimajor_km":6925.7067279016,"source":"CELESTRAK","updated_at":"2026-09-21T09:00:33.320295Z"}}}